Probability
0 0 0 0 3 0 3 3 0 0 0 0 0 0 0 0 0 0 0 0 0 0 0 0 0 0 0 0 0 0 0 0 0 0 0 0 0 0 0 0 0 0 0
0 0 0 0 0 0 0 0 0 0 0 0 0 0 0 0 0 0 0 0 0 0 0 0 0 0 0 0 0 0 0 0 0 0 0 0 0 0 0 0 0 0 0
0 0 0 0 0 0 0 0 3 0 0 0 0 0 0 0 0 0 0 0 0 0 0 0 0 0 0 0 0 0 0 0 0 0 0 0 0 0 0 0 0 0 0
0 0 0 0 0 0 0 0 0 0 0 0 0 0 0 0 0 0 0 0 0 0 0 0 0 0 0 0 0 0 0 0 0 0 0 0 0 0 0 0 0 0 0
0 0 0 0 0 0 0 0 0 0 0 0 0 0 0 0 0 0 0 0 0 0 0 0 0 0 0 0 0 0 0 0 0 0 0 0 0 0 0 0 0 0 0
0 0 0 0 0 0 0 0 0 0 0 0 0 0 0 0 0 0 0 0 0 0 0 0 0 0 0 0 0 0 0 0 0 0 0 0 0 0 0 0 0 0 0
0 0 0 0 0 0 0 0 0 0 0 0 0 0 0 0 0 0 0 0 0 0 0 0 0 0 0 0 0 0 0 0 0 0 0 0 0 0 0 0 0 0 0
0 0 0 0 0 0 0 0 0 0 0 0 0 0 0 0 0 0 0 0 0 0 0 0 0 0 0 0 0 0 0 0 0 0 0 0 0 0 0 0 0 0 0
0 0 0 0 0 0 0 0 0 0 0 0 0 0 0 0 0 0 0 0 0 0 0 0 0 0 0 0 0 0 0 0 0 0 0 0 0 0 0 0 0 0 0
0 0 0 0 0 0 0 0 0 0 0 0 0 0 0 0 0 0 0 0 0 0 0 0 0 0 0 0 0 0 0 0 0 0 0 0 0 0 0 0 0 0 0
0 0 0 0 0 0 0 0 0 0 0 0 0 0 0 0 0 0 0 0 0 0 0 0 0 0 0 0 0 0 0 0 0 0 0 0 0 0 0 0 0 0 0
0 0 0 0 0 0 0 0 0 0 0 0 0 0 0 0 0 0 0 0 0 0 0 0 0 0 0 0 0 0 0 0 0 0 0 0 0 0 0 0 0 0 0
0 0 0 0 0 0 0 0 0 0 0 0 0 0 0 0 0 0 0 0 0 0 0 0 0 0 0 0 0 0 0 0 0 0 0 0 0 0 0 0 0 0 0
0 0 0 0 0 0 0 0 0 0 0 0 0 0 0 0 0 0 0 0 0 0 0 0 0 0 0 0 0 0 0 0 0 0 0 0 0 0 0 0 0 0 0
0 0 0 0 0 0 0 0 0 0 0 0 0 0 0 0 0 0 0 0 0 0 0 0 0 0 0 0 0 0 0 0 0 0 0 0 0 0 0 0 0 0 0
0 0 0 0 0 0 0 0 0 0 0 0 0 0 0 0 0 0 0 0 0 0 0 0 0 0 0 0 0 0 0 0 0 0 0 0 0 0 0 0 0 0 0
0 0 0 0 0 0 0 0 0 0 0 0 0 0 0 0 0 0 0 0 0 0 0 0 0 0 0 0 0 0 0 0 0 0 0 0 0 0 0 0 0 0 0
0 0 0 0 0 0 0 0 0 0 0 0 0 0 0 0 0 0 0 0 0 0 0 0 0 0 0 0 0 0 0 0 0 0 0 0 0 0 0 0 0 0 0
0 0 0 0 0 0 0 0 0 0 0 0 0 0 0 0 0 0 0 0 0 0 0 0 0 0 0 0 0 0 0 0 0 0 0 0 0 0 0 0 0 0 0
0 0 0 0 0 0 0 0 0 0 0 0 0 0 0 0 0 0 0 0 0 0 0 0 0 0 0 0 0 0 0 0 0 0 0 0 0 0 0 0 0 0 0
0 0 0 0 0 0 0 0 0 0 0 0 0 0 0 0 0 0 0 0 0 0 0 0 0 0 0 0 0 0 0 0 0 0 0 0 0 0 0 0 0 0 0
0 0 0 0 0 0 0 0 0 0 0 0 0 0 0 0 0 0 0 0 0 0 0 0 0 0 0 0 0 0 0 0 0 0 0 0 0 0 0 0 0 0 0
0 0 0 0 0 0 0 0 0 0 0 0 0 0 0 0 0 0 0 0 0 0 0 0 0 0 0 0 0 0 0 0 0 0 0 0 0 0 0 0 0 0 0
0 0 0 0 0 0 0 0 0 0 0 0 0 0 0 0 0 0 0 0 0 0 0 0 0 0 0 0 0 0 0 0 0 0 0 0 0 0 0 0 0 0 0
0 0 0 0 0 0 0 0 0 0 0 0 0 0 0 0 0 0 0 0 0 0 0 0 0 0 0 0 0 0 0 0 0 0 0 0 0 0 0 0 0 0 0
0 0 0 0 0 0 0 0 0 0 0 0 0 0 0 0 0 0 0 0 0 0 0 0 0 0 0 0 0 0 0 0 0 0 0 0 0 0 0 0 0 0 0
Height
5715 5721 5728 5735 5742 5749 5756 5762 5768 5773 5778 5783 5788 5792 5796 5799 5802 5805 5808 5810 5812 5813 5814 5814 5815 5814 5814 5813 5811 5809 5807 5805 5802 5799 5796 5792 5788 5784 5780 5776 5771 5767 5762
5704 5712 5719 5727 5734 5741 5748 5754 5760 5766 5771 5776 5781 5785 5789 5792 5795 5798 5801 5804 5806 5807 5808 5808 5809 5808 5808 5807 5805 5804 5801 5799 5796 5793 5790 5786 5783 5778 5774 5769 5765 5760 5755
5696 5704 5711 5718 5726 5733 5741 5747 5753 5759 5764 5769 5773 5778 5782 5785 5789 5792 5795 5797 5799 5800 5801 5802 5802 5802 5802 5800 5799 5797 5795 5793 5790 5787 5784 5780 5777 5773 5768 5763 5758 5754 5749
5687 5695 5703 5710 5718 5726 5733 5739 5745 5751 5756 5761 5766 5771 5776 5780 5783 5786 5788 5790 5792 5794 5795 5795 5796 5796 5795 5794 5793 5791 5788 5786 5783 5780 5777 5774 5770 5766 5762 5757 5752 5747 5742
5678 5686 5694 5703 5711 5717 5724 5730 5736 5742 5748 5753 5759 5764 5769 5772 5776 5778 5781 5783 5785 5787 5788 5789 5789 5789 5788 5787 5786 5784 5782 5779 5776 5773 5770 5767 5763 5759 5756 5751 5746 5740 5734
5668 5677 5685 5693 5701 5708 5715 5721 5728 5734 5740 5745 5751 5756 5761 5764 5768 5771 5774 5776 5778 5780 5781 5782 5782 5782 5781 5780 5779 5777 5775 5772 5769 5767 5763 5760 5756 5753 5748 5744 5739 5734 5728
5658 5666 5674 5682 5691 5699 5706 5713 5720 5726 5732 5738 5743 5748 5753 5756 5760 5764 5767 5769 5771 5773 5774 5774 5774 5774 5774 5773 5772 5770 5768 5765 5762 5759 5756 5753 5749 5745 5741 5737 5732 5727 5721
5648 5657 5666 5674 5682 5690 5697 5704 5711 5718 5724 5730 5735 5740 5744 5748 5752 5756 5759 5761 5764 5765 5766 5767 5767 5767 5766 5766 5764 5762 5760 5758 5755 5752 5749 5745 5741 5737 5733 5729 5724 5719 5714
5639 5648 5657 5664 5672 5681 5689 5696 5703 5710 5716 5722 5727 5732 5736 5740 5744 5747 5750 5753 5755 5757 5758 5759 5759 5759 5759 5758 5757 5755 5753 5750 5748 5745 5741 5738 5734 5730 5725 5720 5715 5711 5705
5630 5639 5647 5655 5663 5672 5680 5687 5694 5701 5707 5713 5718 5723 5728 5732 5736 5739 5742 5745 5747 5749 5750 5751 5751 5751 5751 5750 5749 5747 5745 5743 5740 5737 5734 5730 5726 5722 5717 5712 5707 5701 5696
5622 5630 5639 5647 5654 5662 5670 5677 5685 5691 5698 5704 5710 5715 5720 5724 5727 5731 5734 5736 5738 5740 5742 5743 5743 5743 5743 5742 5741 5739 5737 5735 5732 5729 5726 5722 5718 5714 5709 5704 5699 5693 5687
5613 5622 5630 5637 5645 5653 5660 5668 5675 5682 5689 5695 5701 5706 5711 5715 5719 5722 5726 5728 5730 5732 5733 5734 5735 5735 5735 5734 5733 5731 5729 5727 5724 5721 5718 5715 5710 5706 5701 5696 5690 5684 5678
5604 5613 5621 5628 5636 5644 5651 5659 5666 5673 5680 5686 5692 5697 5702 5706 5710 5714 5717 5720 5722 5724 5725 5726 5727 5727 5726 5726 5725 5723 5721 5719 5716 5714 5710 5707 5703 5698 5693 5688 5682 5676 5669
5596 5604 5612 5619 5627 5635 5642 5650 5657 5663 5670 5676 5682 5688 5693 5698 5702 5705 5708 5711 5713 5715 5716 5717 5718 5718 5718 5717 5716 5715 5713 5711 5709 5706 5702 5699 5694 5690 5685 5680 5674 5667 5661
5588 5595 5602 5610 5618 5625 5633 5640 5647 5653 5660 5666 5672 5678 5683 5688 5692 5696 5699 5702 5704 5706 5708 5709 5709 5710 5709 5709 5708 5707 5705 5703 5701 5698 5694 5691 5686 5682 5677 5671 5665 5659 5652
5579 5586 5594 5601 5609 5616 5624 5631 5638 5644 5650 5657 5663 5668 5673 5678 5683 5687 5690 5693 5695 5697 5699 5700 5701 5701 5701 5701 5700 5699 5697 5695 5693 5690 5686 5682 5678 5674 5668 5663 5657 5650 5643
5571 5578 5585 5592 5600 5607 5615 5622 5629 5635 5641 5647 5653 5659 5664 5669 5673 5677 5680 5684 5686 5689 5690 5692 5692 5693 5693 5693 5692 5691 5689 5687 5685 5682 5678 5675 5670 5665 5660 5654 5648 5641 5634
5562 5569 5576 5583 5590 5598 5605 5612 5619 5625 5632 5638 5644 5649 5655 5660 5664 5668 5671 5674 5677 5679 5681 5683 5684 5684 5684 5684 5684 5683 5681 5679 5677 5674 5671 5667 5662 5657 5652 5646 5639 5632 5625
5553 5560 5567 5574 5581 5588 5595 5603 5610 5616 5623 5629 5635 5640 5645 5650 5655 5658 5662 5665 5668 5670 5672 5674 5675 5676 5676 5676 5676 5675 5673 5671 5669 5666 5663 5659 5654 5649 5644 5638 5631 5624 5616
5544 5551 5558 5565 5572 5579 5586 5593 5601 5607 5614 5620 5626 5631 5636 5641 5646 5649 5653 5656 5659 5662 5663 5665 5667 5668 5668 5668 5668 5667 5665 5664 5661 5658 5655 5651 5646 5641 5635 5629 5623 5615 5607
5535 5542 5549 5556 5563 5569 5577 5584 5592 5599 5605 5611 5616 5622 5627 5632 5636 5640 5644 5647 5650 5653 5655 5657 5659 5660 5661 5660 5660 5659 5658 5656 5653 5650 5647 5643 5638 5633 5627 5621 5614 5607 5599
5526 5533 5540 5547 5554 5561 5568 5575 5583 5590 5596 5602 5608 5614 5619 5624 5628 5632 5636 5639 5642 5645 5648 5650 5651 5652 5653 5653 5652 5652 5650 5648 5646 5643 5639 5635 5630 5625 5619 5613 5606 5598 5590
5518 5525 5532 5539 5546 5552 5559 5567 5574 5581 5587 5593 5599 5605 5610 5615 5620 5624 5628 5632 5635 5638 5640 5642 5644 5645 5645 5645 5645 5644 5642 5640 5638 5635 5631 5627 5622 5617 5611 5604 5597 5590 5582
5510 5517 5523 5530 5537 5544 5551 5558 5565 5572 5578 5585 5591 5597 5602 5607 5612 5617 5621 5624 5627 5630 5632 5634 5636 5637 5638 5638 5638 5636 5635 5633 5630 5627 5623 5619 5614 5609 5603 5596 5589 5582 5574
5501 5508 5515 5522 5529 5535 5543 5550 5557 5564 5571 5577 5583 5589 5595 5600 5605 5609 5613 5617 5620 5623 5625 5627 5629 5630 5631 5631 5630 5629 5627 5625 5622 5619 5615 5611 5607 5601 5595 5588 5581 5574 5565
5493 5500 5507 5514 5521 5528 5535 5542 5549 5557 5563 5569 5576 5581 5587 5592 5597 5601 5605 5608 5612 5615 5618 5620 5621 5622 5623 5623 5622 5621 5619 5617 5615 5611 5608 5604 5599 5593 5587 5580 5573 5566 5557
Wind_Speed
49 48 48 47 46 44 42 41 39 39 38 37 36 35 33 32 32 31 30 28 27 27 26 26 26 26 27 27 27 27 28 29 30 31 32 33 34 34 35 36 37 37 38
52 50 48 48 47 45 43 42 40 39 38 37 36 35 34 33 32 32 31 29 28 28 28 27 27 27 27 28 28 28 29 30 31 32 32 33 34 34 35 36 37 38 38
52 51 49 49 48 46 44 42 41 40 39 38 37 36 35 34 33 32 31 30 29 29 29 28 28 28 28 28 28 29 30 31 32 32 33 33 34 35 35 36 37 38 39
53 52 50 49 48 46 45 43 41 40 40 39 38 36 35 34 33 32 31 31 30 30 29 29 29 29 29 29 29 30 31 32 32 33 33 34 34 35 35 37 38 39 40
52 52 51 49 48 47 46 44 42 41 41 40 39 37 35 35 34 33 32 31 31 30 30 30 30 29 30 30 30 31 31 32 33 33 34 34 35 35 36 37 39 40 41
51 51 51 50 49 49 47 45 43 42 41 40 39 37 36 35 35 34 33 32 31 31 30 31 30 30 30 31 31 31 32 33 33 34 34 35 35 36 37 38 39 40 41
52 51 51 50 50 49 48 46 44 42 41 40 39 38 37 36 35 34 34 33 32 32 31 31 31 31 31 31 31 32 33 33 34 34 34 35 36 37 38 39 40 41 41
52 51 51 50 49 49 48 46 44 43 41 40 39 38 37 36 35 35 34 33 33 32 32 32 32 32 32 32 32 33 33 34 34 34 35 36 37 38 39 40 41 41 42
52 51 50 50 49 48 47 46 44 43 42 40 39 38 37 36 35 35 34 34 33 33 33 33 32 32 32 32 33 33 34 34 34 35 35 36 37 38 40 41 42 42 43
50 50 50 50 49 48 47 46 45 44 42 41 40 39 37 36 36 35 35 34 33 33 33 33 33 33 33 33 33 34 34 35 35 35 35 36 37 39 40 41 42 44 45
49 49 50 50 49 49 48 46 46 44 43 42 41 39 38 37 37 36 34 33 33 34 34 33 33 33 33 33 34 34 34 35 35 35 35 36 38 39 40 41 43 45 46
49 48 48 49 49 48 48 47 45 44 43 42 41 40 39 38 37 36 35 34 34 34 34 33 33 33 34 34 34 34 34 34 34 35 35 36 38 39 41 42 43 45 46
46 48 48 49 49 49 47 46 45 44 43 43 42 41 40 39 37 36 36 36 35 35 34 34 34 34 34 34 34 33 34 34 35 35 36 37 39 40 41 42 43 44 46
44 45 47 48 49 49 48 47 46 45 44 44 43 42 40 39 38 37 37 36 35 35 35 35 35 35 34 34 33 33 34 35 35 35 36 37 39 40 41 42 43 44 46
43 44 45 46 47 49 49 48 47 47 46 45 44 43 41 40 40 39 38 37 35 35 36 35 35 34 34 33 33 34 34 34 34 35 36 37 39 40 41 42 43 44 46
41 43 44 44 44 46 48 47 46 45 46 46 44 43 42 41 40 39 38 38 37 36 35 35 35 34 34 33 33 33 33 33 34 35 36 37 38 40 40 42 43 45 46
41 42 44 45 44 45 46 46 46 45 45 44 44 44 42 41 40 39 39 39 38 37 36 35 34 34 34 33 32 32 33 33 33 34 36 37 38 39 40 41 43 45 46
41 42 44 45 46 46 46 46 46 45 45 44 43 43 42 41 40 40 40 39 38 37 36 35 34 34 33 32 32 32 32 32 33 34 35 36 38 39 40 41 43 45 47
41 42 44 45 46 47 47 47 46 46 45 44 44 43 42 41 40 39 38 38 38 37 36 35 33 32 31 31 31 31 31 31 32 33 35 36 37 38 40 42 44 45 47
42 43 45 45 46 46 47 47 47 46 45 44 43 43 42 41 39 38 37 36 36 36 34 33 32 31 30 29 30 30 30 31 31 33 34 36 37 38 40 42 44 45 47
41 43 45 46 46 46 47 49 48 47 45 44 43 42 41 40 38 37 37 36 35 33 32 30 30 29 29 29 29 29 30 30 31 33 34 35 37 38 40 42 44 45 47
41 42 44 45 46 46 47 47 48 47 46 44 42 41 40 39 38 37 37 35 33 31 30 29 29 28 28 28 28 29 29 30 32 33 34 35 37 38 40 41 44 45 47
43 42 43 45 45 45 46 46 45 45 44 43 41 40 39 38 37 36 34 32 31 30 29 29 28 27 27 27 28 28 29 30 31 32 34 35 37 38 39 42 44 46 47
44 43 43 45 45 45 45 46 45 44 43 42 41 39 38 37 35 33 32 30 29 29 29 28 27 26 26 27 27 28 29 30 31 32 33 35 36 37 39 42 43 45 48
43 43 43 44 44 44 45 46 45 44 43 42 41 39 37 35 34 32 31 29 29 29 28 27 26 25 25 26 27 28 29 30 31 32 33 34 36 37 39 41 43 45 48
41 41 42 42 44 44 45 45 45 43 42 41 40 38 36 34 33 32 31 30 30 29 28 27 26 25 26 27 27 28 28 30 30 31 32 34 36 37 39 41 43 46 49
Wind_Direction
221 221 220 219 219 219 220 221 221 222 224 224 225 227 229 232 234 238 242 246 250 254 260 264 269 274 279 284 289 292 295 298 301 303 305 307 309 310 311 312 313 314 314
219 219 219 219 218 219 220 221 222 223 224 224 226 227 229 232 234 238 242 246 250 255 260 264 269 275 280 284 287 291 294 297 300 302 304 306 308 309 310 311 312 313 313
219 219 220 219 219 219 219 221 223 224 224 225 227 228 230 233 236 240 243 246 250 255 259 264 270 275 280 283 287 290 293 296 299 301 303 305 307 308 309 310 311 311 312
218 219 219 219 219 219 220 221 223 224 225 226 227 229 231 234 237 241 244 246 250 255 259 264 270 275 279 283 286 290 292 296 299 300 302 304 305 307 308 309 309 310 311
219 219 219 218 218 219 220 222 223 224 225 227 228 230 232 234 237 240 242 246 250 254 259 264 269 273 278 282 285 289 292 295 297 299 301 303 305 306 307 308 309 310 311
219 219 220 219 218 219 220 222 223 224 226 228 229 231 233 235 237 240 243 246 250 254 259 264 268 272 277 281 285 288 291 294 296 298 300 302 304 305 306 307 308 309 310
218 218 220 220 218 219 219 221 223 225 227 229 231 232 233 235 237 240 243 247 251 255 259 263 267 272 276 280 283 287 291 293 295 297 299 301 303 304 306 307 308 309 310
218 218 219 220 219 219 219 220 223 225 228 229 231 232 234 235 238 240 244 248 252 256 259 263 267 271 275 278 282 286 289 292 294 296 298 300 302 304 305 307 308 309 310
218 218 218 220 220 220 220 221 222 225 227 229 231 233 234 236 238 241 245 249 252 255 258 262 266 270 274 277 281 285 288 290 293 295 297 300 301 303 305 307 308 309 310
218 217 217 218 219 220 221 222 223 224 226 227 230 232 235 237 240 243 246 249 252 255 258 262 265 269 273 277 280 283 286 289 291 294 296 299 301 303 305 306 307 309 310
218 219 219 219 220 220 221 222 223 224 225 227 229 232 235 238 241 243 246 249 251 254 258 262 265 269 272 276 279 282 285 287 290 293 296 298 300 302 304 306 308 310 311
218 218 219 220 221 222 222 222 223 224 225 227 229 231 234 237 241 243 246 249 251 254 257 261 265 268 272 275 278 280 284 286 289 292 295 297 300 303 305 307 309 310 311
218 218 219 220 221 221 222 222 222 224 226 227 229 230 233 236 239 243 246 248 250 253 256 260 264 268 271 273 276 279 283 285 289 292 295 297 300 303 305 307 309 310 312
218 219 219 220 221 221 221 222 222 223 225 228 229 230 233 236 238 242 245 247 250 252 256 260 263 266 269 271 275 279 282 285 288 291 295 298 301 303 306 307 309 311 312
217 218 219 220 220 220 221 222 222 223 225 227 229 231 232 235 238 241 244 246 248 252 255 258 262 265 267 271 275 278 281 285 288 292 295 298 301 304 306 308 309 311 312
216 217 218 218 219 219 219 221 223 224 225 227 229 231 233 235 237 240 243 245 248 251 254 257 260 262 266 270 274 278 282 285 288 292 295 299 302 304 307 308 310 312 313
216 217 217 217 217 218 219 220 222 225 227 227 229 231 233 235 236 238 242 245 248 250 253 255 258 261 265 270 274 279 281 285 289 292 296 299 303 305 307 309 311 312 314
216 216 216 216 217 218 218 220 222 224 226 227 228 229 231 234 237 239 241 244 246 248 251 254 258 262 265 270 274 278 282 286 290 294 297 300 303 305 308 310 311 314 315
214 214 215 215 216 217 218 220 221 224 226 227 228 229 231 234 237 239 242 243 245 247 249 253 256 260 265 269 274 277 282 286 290 295 298 300 303 306 308 310 313 315 316
214 215 216 216 216 216 217 218 220 223 225 227 228 230 231 232 234 238 240 242 244 246 249 251 256 260 265 269 273 278 282 287 292 295 298 301 304 306 309 312 314 316 317
213 214 214 214 215 215 216 217 219 221 223 225 227 229 229 231 233 235 238 240 243 246 249 252 255 260 265 269 274 278 283 287 291 295 299 302 305 307 310 313 315 317 318
214 213 213 213 213 215 216 216 218 219 221 222 224 226 229 230 232 234 236 239 241 244 247 251 255 259 264 269 274 279 283 287 291 296 300 303 306 309 311 314 316 318 319
214 214 213 212 212 213 214 214 215 216 218 221 222 224 226 229 231 233 236 238 241 244 247 251 254 258 264 269 274 279 283 288 292 297 300 304 307 310 313 315 318 319 321
216 215 214 213 213 212 212 212 213 215 218 220 222 223 226 228 230 232 234 237 240 243 247 250 254 258 264 270 274 279 284 289 293 297 301 305 308 311 314 316 318 320 322
218 217 215 213 214 213 211 211 213 216 219 221 223 224 225 225 227 229 231 235 239 243 246 249 253 258 265 270 275 281 286 290 294 298 302 306 310 312 315 318 319 321 323
218 218 216 215 215 214 213 212 214 216 218 220 221 223 223 225 228 230 232 236 240 243 247 250 255 260 266 271 277 282 286 291 295 299 303 307 310 313 316 319 320 322 324